Kintore, United Kingdom
Current Conditions -  °F | °C
As of 10:20 PM on Sunday 23 Nov 2014 (Local Time) from EGPD Reporting Station
Clear Clear  
Wind Chill:   Ceiling: Unl
Heat Index:   Visibility: 6mi
Dew Point:   Wind: 7mph
Humidity: 87%   Direction: 240°WSW
Pressure: 29.91"   Gusts: NA
Location:  57.24°N, 2.35°W
Report Text: EGPD 232220Z 24006KT CAVOK 04/02 Q1013 NOSIG
Loading
Personal Weather Stations






























Interactive Weather Map New forecast layout! Learn more

10-Day Weather Forecast

Advertisements
Track Severe Weather on mobile